Weather History for Jaipur, India

Change the Weather History Date:

Tuesday, April 2, 2013

  Actual Average Record
Temperature  
Mean Temperature 84 °F -  
Max Temperature 96 °F - - ()
Min Temperature 73 °F - - ()
Cooling Degree Days 20    
Growing Degree Days 34 (Base 50)    
Moisture  
Dew Point 45 °F    
Average Humidity 24    
Maximum Humidity 50    
Minimum Humidity 7    
Precipitation  
Precipitation 0.20 in - - ()
Sea Level Pressure  
Sea Level Pressure 29.80 in    
Wind  
Wind Speed 8 mph ()    
Max Wind Speed 16 mph    
Max Gust Speed 30 mph    
Visibility 2.0 miles    
Events Thunderstorm    
T = Trace of Precipitation, MM = Missing Value Source: Averaged Metar Reports

Daily Weather History Graph

Daily Weather History Graph

Search for Another Location

Airport:

Trip Planner

Search our weather history database for the weather conditions in past years. The results will help you decide how hot, cold, wet, or windy it might be!

Date:

Astronomy

Apr. 02, 2013 Rise Set
Actual Time 6:16 AM IST 6:44 PM IST
Civil Twilight 5:53 AM IST 7:07 PM IST
Nautical Twilight 5:26 AM IST 7:35 PM IST
Astronomical Twilight 4:58 AM IST 8:02 PM IST
Moon No Moon Rise 11:00 AM IST (4/2)
Length of Visible Light 13h 14m
Length of Day
12h 27m
Waning Gibbous, 60% of the Moon is Illuminated
Apr 2
Waning Gibbous
Apr 3
Last Quarter
Apr 10
New
Apr 18
First Quarter
Apr 26
Full

Hourly Weather History & Observations

Time (IST) Temp. Dew Point Humidity Pressure Visibility Wind Dir Wind Speed Gust Speed Precip Events Conditions
12:00 AM 80.6 °F 44.6 °F 28% 29.83 in 2.5 mi East 6.9 mph - N/A   Haze
1:00 AM 80.6 °F 42.8 °F 26% 29.80 in 2.5 mi ENE 8.1 mph - N/A   Haze
2:00 AM 80.6 °F 41.0 °F 24% 29.80 in 2.5 mi ENE 8.1 mph - N/A   Haze
3:00 AM 78.8 °F 41.0 °F 26% 29.80 in 2.5 mi East 8.1 mph - N/A   Haze
4:00 AM 78.8 °F 39.2 °F 24% 29.80 in - East 6.9 mph - N/A   Haze
5:00 AM 73.4 °F 41.0 °F 31% 29.80 in 2.5 mi ESE 6.9 mph - N/A   Haze
5:30 AM 73 °F 42 °F 21% 29.76 in 1 mi ESE 6.9 mph - -   Haze
7:00 AM 77.0 °F 44.6 °F 32% 29.86 in 1.6 mi East 9.2 mph - N/A   Haze
8:00 AM 78.8 °F 44.6 °F 30% 29.86 in 1.6 mi East 9.2 mph - N/A   Haze
8:30 AM 81 °F 49 °F 22% 29.81 in 1 mi East 6.9 mph - -   Haze
9:00 AM 84.2 °F 46.4 °F 27% 29.89 in 1.6 mi East 9.2 mph - N/A   Haze
10:00 AM 86.0 °F 48.2 °F 27% 29.92 in 1.6 mi SE 10.4 mph - N/A   Haze
11:30 AM 92 °F 52 °F 17% 29.79 in 1 mi East 10.4 mph - -   Haze
12:00 PM 93.2 °F 44.6 °F 19% 29.89 in 1.9 mi SE 11.5 mph - N/A   Haze
1:00 PM 93.2 °F 44.6 °F 19% 29.86 in 2.5 mi SSE 9.2 mph - N/A   Haze
2:00 PM 95.0 °F 41.0 °F 15% 29.80 in 3.1 mi ESE 9.2 mph - N/A   Haze
2:30 PM 95 °F 38 °F 7% 29.72 in 2 mi ESE 10.4 mph - -   Haze
3:00 PM 95.0 °F 39.2 °F 14% 29.77 in 3.1 mi Variable 4.6 mph - N/A   Haze
4:00 PM 96.8 °F 39.2 °F 14% 29.74 in 3.1 mi East 6.9 mph - N/A   Haze
5:00 PM 95.0 °F 41.0 °F 15% 29.74 in 3.1 mi East 9.2 mph - N/A   Haze
6:00 PM 93.2 °F 41.0 °F 16% 29.71 in 2.5 mi NE 5.8 mph - N/A   Haze
8:30 PM 81 °F 54 °F 29% 29.70 in 1 mi WNW 9.2 mph - - Thunderstorm Thunderstorm
10:00 PM 77.0 °F 51.8 °F 41% 29.83 in 1.9 mi NE 16.1 mph - N/A Thunderstorm Thunderstorm
11:00 PM 73.4 °F 53.6 °F 50% 29.86 in 1.9 mi Variable 15.0 mph 29.9 mph N/A Thunderstorm Thunderstorm
11:30 PM 73 °F 52 °F 37% 29.78 in 1 mi NE 11.5 mph - - Thunderstorm Thunderstorm